Location: Unspecified
(0.0000°N, 0.0000°E)
Time: 06:26:37
(UTC+00:00)

Vanguard 2 - Pass Details

Date: 25 September 2019
Orbit: 554 x 2937 km, 32.9° (Epoch: 14 October)

Event Time Altitude Azimuth Distance (km) Brightness Sun altitude
Rises 19:42:08 0° 219° (SW) 5,214 12.3 -27.6°
Reaches altitude 10° 19:45:25 10° 212° (SSW) 4,515 11.8 -28.4°
Maximum altitude 19:58:11 45° 143° (SE) 3,334 10.4 -31.6°
Enters shadow 20:01:01 42° 122° (ESE) 3,530 10.4 -32.3°
Drops below altitude 10° 20:14:37 10° 77° (ENE) 5,763 - -35.7°
Sets 20:19:25 0° 71° (ENE) 6,728 - -36.9°
